सभी
Fisher County Airport (Rotan/Roby, TX) 56F मौसम
There is no TAF data available at 56F or any nearby airports.
There is no METAR data available at 56F. Showing METAR data for KSWW (25 mi S).
Recent SWW METAR history (no data for 56F)
| Date | Time (CDT) | Flight Rules | Wind Dir. | Speed | Type | Height AGL (ft) | Visibility | Temp (°C) | Temp (°F) | Dew Point (°C) | Dew Point (°F) | Rel. Humid. | Pressure | Density Altitude | Remarks |
|---|---|---|---|---|---|---|---|---|---|---|---|---|---|---|---|
| 04-मई | 14:15 | VFR | 220° | 15 kt | 10 miles | 30° | 86° | 11° | 51° | 32% | 29.84 in Hg | 4,734 ft | Wind gusting to 20 KT | ||
| 04-मई | 13:55 | VFR | 210° | 15 kt | 10 miles | 29° | 84° | 11° | 51° | 33% | 29.85 in Hg | 4,604 ft | Wind gusting to 20 KT | ||
| 04-मई | 13:35 | VFR | 220° | 15 kt | 10 miles | 30° | 86° | 11° | 51° | 32% | 29.86 in Hg | 4,714 ft | Wind gusting to 20 KT | ||
| 04-मई | 13:15 | VFR | 220° | 12 kt | 10 miles | 29° | 84° | 11° | 51° | 33% | 29.87 in Hg | 4,584 ft | Wind gusting to 22 KT | ||
| 04-मई | 12:55 | VFR | 230° | 15 kt | 10 miles | 28° | 82° | 11° | 51° | 35% | 29.88 in Hg | 4,454 ft | |||
| 04-मई | 12:35 | VFR | 210° | 15 kt | 10 miles | 27° | 80° | 12° | 53° | 39% | 29.88 in Hg | 4,334 ft | Wind gusting to 21 KT | ||
| 04-मई | 12:15 | VFR | 220° | 16 kt | 10 miles | 25° | 77° | 12° | 53° | 44% | 29.89 in Hg | 4,084 ft | Wind gusting to 22 KT | ||
| 04-मई | 11:55 | VFR | 210° | 19 kt | 10 miles | 25° | 77° | 12° | 53° | 44% | 29.89 in Hg | 4,084 ft | |||
| 04-मई | 11:15 | VFR | 210° | 18 kt | 10 miles | 23° | 73° | 12° | 53° | 49% | 29.90 in Hg | 3,834 ft | Wind gusting to 24 KT | ||
| 04-मई | 10:55 | VFR | 210° | 19 kt | 10 miles | 23° | 73° | 12° | 53° | 50% | 29.90 in Hg | 3,834 ft | |||
| 04-मई | 10:15 | VFR | 220° | 18 kt | 10 miles | 22° | 71° | 12° | 53° | 52% | 29.91 in Hg | 3,704 ft | Wind gusting to 22 KT | ||
| 04-मई | 09:55 | VFR | 210° | 19 kt | 10 miles | 21° | 69° | 12° | 53° | 54% | 29.90 in Hg | 3,594 ft | Wind gusting to 24 KT | ||
| 04-मई | 09:35 | VFR | 210° | 20 kt | 10 miles | 21° | 69° | 11° | 51° | 54% | 29.91 in Hg | 3,584 ft | Wind gusting to 26 KT | ||
| 04-मई | 09:15 | VFR | 200° | 20 kt | 10 miles | 20° | 68° | 11° | 51° | 58% | 29.91 in Hg | 3,464 ft | Wind gusting to 23 KT | ||
| 04-मई | 08:55 | VFR | 200° | 20 kt | 10 miles | 19° | 66° | 11° | 51° | 60% | 29.90 in Hg | 3,354 ft | Wind gusting to 24 KT | ||
| 04-मई | 08:35 | VFR | 200° | 20 kt | 10 miles | 19° | 66° | 10° | 50° | 58% | 29.90 in Hg | 3,354 ft | |||
| 04-मई | 08:15 | VFR | 200° | 19 kt | 10 miles | 18° | 64° | 10° | 50° | 59% | 29.89 in Hg | 3,244 ft | Wind gusting to 22 KT | ||
| 04-मई | 07:55 | VFR | 200° | 18 kt | 10 miles | 17° | 62° | 10° | 50° | 61% | 29.89 in Hg | 3,124 ft | Wind gusting to 23 KT | ||
| 04-मई | 07:35 | VFR | 200° | 17 kt | 10 miles | 17° | 62° | 9° | 48° | 61% | 29.88 in Hg | 3,134 ft | Wind gusting to 21 KT | ||
| 04-मई | 07:15 | VFR | 190° | 16 kt | 10 miles | 16° | 60° | 9° | 48° | 62% | 29.88 in Hg | 3,014 ft | |||
| 04-मई | 06:55 | VFR | 190° | 15 kt | 10 miles | 17° | 62° | 9° | 48° | 60% | 29.88 in Hg | 3,134 ft | Wind gusting to 19 KT | ||
| 04-मई | 06:35 | VFR | 190° | 14 kt | 10 miles | 17° | 62° | 9° | 48° | 58% | 29.88 in Hg | 3,134 ft | |||
| 04-मई | 06:15 | VFR | 200° | 15 kt | 10 miles | 17° | 62° | 9° | 48° | 57% | 29.88 in Hg | 3,134 ft | |||
| 04-मई | 05:55 | VFR | 190° | 13 kt | 10 miles | 17° | 62° | 8° | 46° | 56% | 29.88 in Hg | 3,134 ft | Wind gusting to 19 KT |
लॉगिन
| Your browser is unsupported. अपना ब्राऊजर अपग्रेड करें |
